NIMBUS 2 DEB, 28202

Orbit data source: Space-Track

NIMBUS 2 DEB, 28202 is space debris in SSO originally from a launch on Sun, 15 May 1966 UTC launched from the Air Force Western Test Range (AFWTR). Debris objects in space refer to the collection of defunct objects orbiting the Earth. Examples of debris include non-operational satellites, rocket bodies, and fragments generated from explosions, collisions, or faulty payload assembly.

Loading next visibility...
Identifier
28202, 1966-040Q
Orbit
SSO
Country
Flag of USUS
Related business
Manufacturer
Unknown
Mission
Spacecraft
Bus & Motor
Unknown
Mass
Unknown
Launch date (UTC)
1966-05-15 (60 years ago)
Launch vehicle
Unknown
Launch site
Air Force Western Test Range (AFWTR)
Object type
Payload
Rocket body
Debris
Shape & HBR
Unknown shape, 0.1 m
Radar Cross Section
Small (<0.1 m²)

Expand to show TLE details & history
Last TLE update: 4 days ago

TLE from 4 days ago
0 NIMBUS 2 DEB
1 28202U 66040Q   26122.17325802  .00002539  00000-0  31869-2 0  9999
2 28202 100.1928  10.6868 0032608   7.3835 148.3800 13.64984531626531
Epoch: 2026-05-02T04:09Z
TLE epoch observation values (Epoch: 2026-05-02T04:09:29.492Z)
Latitude
23.6614°
Longitude
-87.28585°
Altitude
1,040.943 km
Speed
7.323 km/s
True Right ascension
13h 00m 43s
True Declination
23° 32' 24"
Sunlit
Object was in full shadow at epoch
Visualization orbit readout
Latitude
Unknown
Longitude
Unknown
Altitude
Unknown
Speed
Unknown
Apparent Right ascension
Unknown
Apparent Declination
Unknown
Sunlit
N/A
Visualization observer readout
Local Sidereal Time
06:42:45
Azimuth
Unknown
Elevation
Unknown
Doppler factor
Unknown
Orbital elements
Apogee altitude
1,039.047 km
Perigee altitude
990.832 km
Semi-major axis
7,393.077 km
Eccentricity
0.00326
Inclination
100.1928°
RAAN
10.6868°
Arg. of periapsis
7.3835°
True anomaly
148.57523°
Mean anomaly
148.38°
Eccentric anomaly
148.47768°
Mean motion
3.41433 °/min
Orbital period
105.44 mins
BSTAR
0.0031869
Loading maneuver chart data...
Computing Atmospheric mass density...
Loading historical data...
Loading historical data...
Loading historical data...
Loading historical data...
Loading historical data...
Loading historical data...
Loading historical data...

Documentation

Showing up to 5 results
|